65,28/09/2015 12:05,1443441907,59.88281,-3.86161,3,4,28/09/2015 12:05,1443441912,12.2,10,10.9,0,0,59.899,-3.9229,3,5
66,28/09/2015 13:05,1443445520,59.88281,-3.86161,11,3,28/09/2015 13:05,1443445514,12.2,30,10.9,0,0,59.9011,-3.9377,3,5
67,28/09/2015 14:05,1443449113,59.88069,-3.9329,4,2,28/09/2015 14:05,1443449101,12.2,30,10.9,0,0,59.9039,-3.9578,3,5
68,28/09/2015 15:05,1443452720,60.03473,-6.47497,154,2,28/09/2015 15:05,1443452711,12.2,30,10.9,0,0,59.9047,-3.9802,3,5
69,28/09/2015 16:05,1443456312,59.90954,-4.00917,3,4,28/09/2015 16:05,1443456309,12.243,30,10.9,0,0,59.9063,-4.0008,3,5
70,28/09/2015 17:05,1443459927,59.90954,-4.00917,3,3,28/09/2015 17:05,1443459953,12.2,26,10.9,0,0,59.9077,-4.0069,23,4
71,28/09/2015 18:05,1443463510,59.9117,-3.9378,2,4,28/09/2015 18:05,1443463538,12.2,26,10.9,0,0,59.9084,-3.9941,3,5
72,28/09/2015 19:05,1443467112,59.90512,-4.15186,11,2,28/09/2015 19:05,1443467116,12.2,26,10.9,0,0,59.9077,-3.9733,3,5
73,28/09/2015 20:05,1443470710,59.9117,-3.9378,3,2,28/09/2015 20:05,1443470703,12.2,26,10.9,0,0,59.908,-3.951,3,3
74,28/09/2015 21:05,1443474328,59.88281,-3.86161,3,2,28/09/2015 21:05,1443474345,12.2,29,10.9,0,0,59.9109,-3.922,20,3
75,28/09/2015 22:05,1443477909,59.93181,-3.86643,6,2,28/09/2015 22:05,1443477908,12.2,29,10.9,0,0,59.9138,-3.8927,3,5
76,28/09/2015 23:05,1443481507,59.91381,-3.86643,2,2,28/09/2015 23:05,1443481510,12.2,29,10.9,0,0,59.9165,-3.8753,3,5
77,29/09/2015 00:05,1443485111,59.93389,-3.79504,4,3,29/09/2015 00:05,1443485140,12.2,29,10.9,0,0,59.9203,-3.869,3,2
78,29/09/2015 01:06,1443488791,59.91381,-3.86643,2,2,29/09/2015 01:05,1443488757,12.2,32,10.9,0,0,59.9245,-3.8742,75,5
79,29/09/2015 02:05,1443492325,59.98016,-3.22755,101,1,29/09/2015 02:05,1443492310,12.2,32,10.9,0,0,59.9288,-3.8877,18,3
80,29/09/2015 03:05,1443495929,59.96283,-3.87126,5,2,29/09/2015 03:05,1443495903,12.2,32,10.9,0,0,59.932,-3.9034,24,3
81,29/09/2015 04:05,1443499507,59.98685,-2.94118,80,3,29/09/2015 04:05,1443499502,12.2,32,10.9,0,0,59.9324,-3.9181,3,5
82,29/09/2015 05:05,1443503109,59.9297,-3.9378,2,2,29/09/2015 05:05,1443503143,12.2,33,10.9,0,0,59.9336,-3.9287,3,5
83,29/09/2015 06:06,1443506780,59.9297,-3.9378,4,4,29/09/2015 06:05,1443506711,12.157,33,10.9,0,0,59.9358,-3.9241,67,5
84,29/09/2015 07:05,1443510310,59.96491,-3.79978,2,2,29/09/2015 07:05,1443510313,12.157,33,10.9,0,0,59.9362,-3.9019,3,5
85,29/09/2015 08:06,1443513984,59.91589,-3.79504,4,3,29/09/2015 08:05,1443513908,12.157,33,10.9,0,0,59.9364,-3.8711,78,2
86,29/09/2015 09:05,1443517518,59.96491,-3.79978,6,2,29/09/2015 09:05,1443517512,12.157,32,10.9,0,0,59.9372,-3.8359,3,5
87,29/09/2015 10:05,1443521146,59.99386,-3.8761,4,2,29/09/2015 10:05,1443521142,12.157,32,10.9,0,0,59.9386,-3.7999,30,4
88,29/09/2015 11:06,1443524780,59.93389,-3.79504,3,2,29/09/2015 11:05,1443524704,12.157,32,10.9,0,0,59.9427,-3.7743,75,5
89,29/09/2015 12:05,1443528309,59.91793,-3.72364,6,2,29/09/2015 12:05,1443528312,12.157,32,10.9,0,0,59.9472,-3.757,3,5
90,29/09/2015 13:05,1443531925,59.96895,-3.65679,3,2,29/09/2015 13:05,1443531916,12.2,37,10.9,0,0,59.9501,-3.7548,21,5
91,29/09/2015 14:05,1443535516,59.96695,-3.72829,2,2,29/09/2015 14:05,1443535533,12.157,37,10.9,0,0,59.9531,-3.7635,3,2
92,29/09/2015 15:05,1443539110,60.15454,-6.93725,205,4,29/09/2015 15:05,1443539110,12.157,37,10.9,0,0,59.9556,-3.7802,3,1
93,29/09/2015 16:05,1443542712,59.96695,-3.72829,2,2,29/09/2015 16:05,1443542744,12.157,37,10.9,0,0,59.9585,-3.7949,3,5
94,29/09/2015 17:05,1443546319,59.93593,-3.72364,7,2,29/09/2015 17:05,1443546310,12.157,29,10.9,0,0,59.9608,-3.8016,3,5
95,29/09/2015 18:05,1443549909,59.96695,-3.72829,6,4,29/09/2015 18:05,1443549908,12.157,29,10.9,0,0,59.9618,-3.7974,3,4
96,29/09/2015 19:05,1443553546,59.96491,-3.79978,8,3,29/09/2015 19:05,1443553509,12.157,29,10.9,0,0,59.9621,-3.7826,41,1
97,29/09/2015 20:05,1443557111,59.96695,-3.72829,3,3,29/09/2015 20:05,1443557127,12.157,29,10.9,0,0,59.9621,-3.7562,3,5
98,29/09/2015 21:05,1443560709,59.96895,-3.65679,4,2,29/09/2015 21:05,1443560712,12.157,28,10.9,0,0,59.9627,-3.7254,3,5
99,29/09/2015 22:05,1443564310,59.96895,-3.65679,8,2,29/09/2015 22:05,1443564312,12.157,28,10.9,0,0,59.9635,-3.6881,3,4
100,29/09/2015 23:05,1443567907,59.96895,-3.65679,3,2,29/09/2015 23:05,1443567917,12.157,28,10.9,0,0,59.9647,-3.6593,3,5
101,30/09/2015 00:05,1443571522,59.97525,-6.03151,153,2,30/09/2015 00:05,1443571509,12.157,28,10.9,0,0,59.9658,-3.6394,3,5
102,30/09/2015 01:05,1443575138,60.01992,-3.58976,7,2,30/09/2015 01:05,1443575110,12.2,32,10.9,0,0,59.9682,-3.6366,24,2
103,30/09/2015 02:05,1443578707,59.90502,-5.80311,137,5,30/09/2015 02:05,1443578751,12.157,32,10.9,0,0,59.9711,-3.6413,3,5
104,30/09/2015 03:05,1443582330,59.96895,-3.65679,2,2,30/09/2015 03:05,1443582348,12.157,32,10.9,0,0,59.9714,-3.656,24,5
105,30/09/2015 04:05,1443585911,59.97091,-3.58527,3,2,30/09/2015 04:05,1443585940,12.157,32,10.9,0,0,59.9696,-3.6785,3,5
106,30/09/2015 05:05,1443589517,59.93792,-3.65222,5,3,30/09/2015 05:05,1443589537,12.157,31,10.9,0,0,59.9674,-3.701,3,4
107,30/09/2015 06:05,1443593111,60.05111,-2.15566,99,2,30/09/2015 06:05,1443593101,12.157,31,10.9,0,0,59.9645,-3.7168,3,5
108,30/09/2015 07:05,1443596713,59.96695,-3.72829,3,2,30/09/2015 07:05,1443596711,12.157,31,10.9,0,0,59.9636,-3.7214,3,5
109,30/09/2015 08:05,1443600312,59.96895,-3.65679,6,3,30/09/2015 08:05,1443600312,12.157,31,10.9,0,0,59.9651,-3.7056,3,5
110,30/09/2015 09:05,1443603919,59.96895,-3.65679,3,2,30/09/2015 09:05,1443603941,12.157,28,10.9,0,0,59.965,-3.6774,3,4
111,30/09/2015 10:05,1443607512,59.93989,-3.5808,11,3,30/09/2015 10:05,1443607510,12.2,28,10.9,0,0,59.9649,-3.6452,3,5
112,30/09/2015 11:05,1443611111,59.97284,-3.51375,2,3,30/09/2015 11:05,1443611150,12.2,28,10.9,0,0,59.9636,-3.6098,3,3
113,30/09/2015 12:05,1443614712,59.97091,-3.58527,2,2,30/09/2015 12:05,1443614711,12.2,28,10.9,0,0,59.9618,-3.5799,3,5
114,30/09/2015 13:05,1443618341,59.94181,-3.50936,4,2,30/09/2015 13:05,1443618324,12.2,30,10.9,0,0,59.9584,-3.5655,21,3
115,30/09/2015 14:05,1443621927,59.97284,-3.51375,9,2,30/09/2015 14:05,1443621937,12.2,30,10.9,0,0,59.9546,-3.5699,18,4
116,30/09/2015 15:05,1443625511,59.94181,-3.50936,4,2,30/09/2015 15:05,1443625538,12.2,30,10.9,0,0,59.9535,-3.5887,3,4
117,30/09/2015 16:05,1443629110,59.93989,-3.5808,3,4,30/09/2015 16:05,1443629145,12.2,30,10.9,0,0,59.9521,-3.6136,3,5
118,30/09/2015 17:05,1443632707,59.97091,-3.58527,8,3,30/09/2015 17:05,1443632703,12.2,33,10.9,0,0,59.9521,-3.6383,3,5
119,30/09/2015 18:05,1443636327,59.93792,-3.65222,3,2,30/09/2015 18:05,1443636304,12.2,33,10.9,0,0,59.9521,-3.6523,22,5
120,30/09/2015 19:05,1443639957,60.04612,-5.53907,147,5,30/09/2015 19:05,1443639945,12.2,33,10.9,0,0,59.9518,-3.6561,52,5
121,30/09/2015 20:05,1443643512,59.93989,-3.5808,2,2,30/09/2015 20:05,1443643533,12.2,33,10.9,0,0,59.9522,-3.6465,3,5
122,30/09/2015 21:05,1443647112,59.91993,-3.65222,4,4,30/09/2015 21:05,1443647113,12.2,28,10.9,0,0,59.9536,-3.6199,3,5
123,30/09/2015 22:05,1443650712,60,-3.66136,14,3,30/09/2015 22:05,1443650712,12.157,28,10.9,0,0,59.9529,-3.5796,3,4
124,30/09/2015 23:05,1443654322,59.97473,-3.44222,2,4,30/09/2015 23:05,1443654314,12.157,28,10.9,0,0,59.9526,-3.5376,3,2
125,01/10/2015 00:05,1443657911,59.94554,-3.36646,3,3,01/10/2015 00:05,1443657945,12.157,28,10.9,0,0,59.9504,-3.4988,3,5
126,01/10/2015 01:05,1443661517,59.97284,-3.51375,2,3,01/10/2015 01:05,1443661510,12.157,30,10.9,0,0,59.947,-3.4806,3,5
127,01/10/2015 02:05,1443665117,59.76443,-7.50516,246,3,01/10/2015 02:05,1443665145,12.157,30,10.9,0,0,59.9435,-3.4794,3,3
128,01/10/2015 03:05,1443668709,59.94369,-3.43792,6,2,01/10/2015 03:05,1443668710,12.157,30,10.9,0,0,59.941,-3.4931,3,5
129,01/10/2015 04:05,1443672322,59.94181,-3.50936,3,2,01/10/2015 04:05,1443672347,12.157,30,10.9,0,0,59.9395,-3.5182,3,5
130,01/10/2015 05:05,1443675907,59.92381,-3.50936,4,4,01/10/2015 05:05,1443675915,12.157,31,10.9,0,0,59.9382,-3.5483,3,5
131,01/10/2015 06:05,1443679512,59.90054,-4.2945,77,2,01/10/2015 06:05,1443679513,12.157,31,10.9,0,0,59.9367,-3.5721,3,5
132,01/10/2015 07:06,1443683167,59.97091,-3.58527,8,2,01/10/2015 07:05,1443683116,12.157,31,10.9,0,0,59.9363,-3.581,54,3
133,01/10/2015 08:05,1443686730,59.90054,-1.43031,166,5,01/10/2015 08:05,1443686744,12.157,31,10.9,0,0,59.935,-3.5755,19,3
134,01/10/2015 09:05,1443690311,59.94369,-3.43792,2,4,01/10/2015 09:05,1443690307,12.157,29,10.9,0,0,59.9346,-3.5605,3,5
135,01/10/2015 10:05,1443693911,59.93989,-3.5808,3,3,01/10/2015 10:05,1443693939,12.157,29,10.9,0,0,59.9337,-3.533,3,5
136,01/10/2015 11:05,1443697510,59.92569,-3.43792,3,2,01/10/2015 11:05,1443697514,12.157,29,10.9,0,0,59.9338,-3.5002,3,5
137,01/10/2015 12:05,1443701120,59.89651,-3.36226,3,3,01/10/2015 12:05,1443701110,12.157,29,10.9,0,0,59.933,-3.4729,3,5
138,01/10/2015 13:05,1443704708,59.89651,-3.36226,4,2,01/10/2015 13:05,1443704708,12.157,34,10.9,0,0,59.9327,-3.453,3,2
139,01/10/2015 14:05,1443708314,59.92569,-3.43792,5,2,01/10/2015 14:05,1443708308,12.157,34,10.9,0,0,59.9331,-3.4426,3,4
140,01/10/2015 15:05,1443711920,59.94554,-3.36646,4,2,01/10/2015 15:05,1443711910,12.157,34,10.9,0,0,59.9334,-3.4429,3,4
141,01/10/2015 16:05,1443715512,59.94369,-3.43792,3,2,01/10/2015 16:05,1443715505,12.157,34,10.9,0,0,59.933,-3.4515,3,5
142,01/10/2015 17:05,1443719125,59.94369,-3.43792,3,3,01/10/2015 17:05,1443719124,12.157,37,10.9,0,0,59.9307,-3.4642,18,5
143,01/10/2015 18:05,1443722726,59.89467,-3.43363,2,462,01/10/2015 18:05,1443722745,12.157,37,10.9,0,0,59.9275,-3.4804,21,4
144,01/10/2015 19:05,1443726310,59.94181,-3.50936,3,3,01/10/2015 19:05,1443726314,12.114,37,10.9,0,0,59.9258,-3.4899,3,5
145,01/10/2015 20:05,1443729909,59.94181,-3.50936,2,2,01/10/2015 20:05,1443729938,12.114,37,10.9,0,0,59.9252,-3.4862,3,5
146,01/10/2015 21:05,1443733508,59.89467,-3.43363,3,3,01/10/2015 21:05,1443733512,12.114,34,10.9,0,0,59.9264,-3.4709,3,5
147,01/10/2015 22:05,1443737112,59.92569,-3.43792,5,3,01/10/2015 22:05,1443737110,12.114,34,10.9,0,0,59.9284,-3.4424,3,4
148,01/10/2015 23:05,1443740717,59.94369,-3.43792,2,2,01/10/2015 23:05,1443740709,12.114,34,10.9,0,0,59.9313,-3.4046,3,5
149,02/10/2015 00:05,1443744307,59.94554,-3.36646,3,2,02/10/2015 00:05,1443744300,12.114,34,10.9,0,0,0,0,3,5
150,02/10/2015 01:05,1443747912,59.94734,-3.29499,5,3,02/10/2015 01:05,1443747900,12.114,33,10.9,0,0,0,0,3,5
151,02/10/2015 02:05,1443751508,59.98016,-3.22755,8,5,02/10/2015 02:05,1443751552,12.114,33,10.9,0,0,59.9416,-3.2945,3,5
152,02/10/2015 03:05,1443755113,59.94911,-3.22352,3,2,02/10/2015 03:05,1443755112,12.114,33,10.9,0,0,59.9429,-3.2742,3,5
153,02/10/2015 04:05,1443758712,59.80233,-7.15156,227,2,02/10/2015 04:05,1443758712,12.071,33,10.9,0,0,59.9434,-3.2684,3,5
154,02/10/2015 05:05,1443762311,59.94734,-3.29499,2,2,02/10/2015 05:05,1443762313,12.071,32,10.8,0,0,59.9436,-3.2699,3,5
155,02/10/2015 06:05,1443765929,59.94734,-3.29499,3,2,02/10/2015 06:05,1443765949,12.071,32,10.9,0,0,59.9426,-3.2831,21,2
156,02/10/2015 07:05,1443769512,59.98016,-3.22755,7,2,02/10/2015 07:05,1443769514,12.028,32,10.9,0,0,59.9425,-3.2938,3,2
157,02/10/2015 08:07,1443773273,59.94911,-3.22352,3,3,02/10/2015 08:05,1443773102,12.028,32,10.9,0,0,0,0,158,5
158,02/10/2015 09:05,1443776727,59.97838,-3.29911,5,3,02/10/2015 09:05,1443776700,12.028,30,10.8,0,0,59.9474,-3.3018,19,5
159,02/10/2015 10:05,1443780314,59.94911,-3.22352,3,3,02/10/2015 10:05,1443780314,12.028,30,10.9,0,0,59.9547,-3.2892,3,5
160,02/10/2015 11:05,1443783912,59.94911,-3.22352,4,4,02/10/2015 11:05,1443783939,12.028,30,10.9,0,0,59.9634,-3.2574,3,3
161,02/10/2015 12:05,1443787508,59.98189,-3.15597,4,2,02/10/2015 12:05,1443787514,12.028,30,10.9,0,0,59.9702,-3.2175,3,5
162,02/10/2015 13:05,1443791110,59.98358,-3.08438,3,2,02/10/2015 13:05,1443791110,12.028,29,10.8,0,0,59.9739,-3.1732,3,2
163,02/10/2015 14:05,1443794707,59.98189,-3.15597,3,2,02/10/2015 14:05,1443794700,12.028,29,10.9,0,0,59.9741,-3.1336,3,5
164,02/10/2015 15:05,1443798328,59.94911,-3.22352,14,2,02/10/2015 15:05,1443798312,12.028,29,10.9,0,0,59.9728,-3.112,22,1
165,02/10/2015 16:05,1443801925,59.95253,-3.08053,2,2,02/10/2015 16:05,1443801954,12.028,29,10.9,0,0,59.9715,-3.1063,18,4
166,02/10/2015 17:05,1443805511,59.95253,-3.08053,3,2,02/10/2015 17:05,1443805534,12.028,31,10.8,0,0,59.9719,-3.1162,3,3
167,02/10/2015 18:05,1443809110,59.98189,-3.15597,2,4,02/10/2015 18:05,1443809146,12.028,31,10.9,0,0,59.9739,-3.1355,3,5
168,02/10/2015 19:05,1443812726,60.22894,0.21675,215,2,02/10/2015 19:05,1443812707,12.028,31,10.9,0,0,59.9784,-3.1595,18,4
169,02/10/2015 20:05,1443816308,59.98358,-3.08438,3,2,02/10/2015 20:05,1443816309,12.028,31,10.9,0,0,59.9852,-3.1757,3,2
170,02/10/2015 21:06,1443819982,60.00154,-3.08438,3,2,02/10/2015 21:05,1443819907,12.028,32,10.8,0,0,59.9944,-3.1805,75,5
171,02/10/2015 22:05,1443823521,59.99985,-3.15597,4,2,02/10/2015 22:05,1443823542,12.028,32,10.9,0,0,60.0051,-3.1714,3,5
172,02/10/2015 23:05,1443827107,60.0326,-3.08825,6,3,02/10/2015 23:05,1443827145,12.028,32,10.8,0,0,60.0157,-3.1501,3,5
173,03/10/2015 00:06,1443830778,60.06368,-3.09212,13,2,03/10/2015 00:05,1443830743,12.028,32,10.8,0,0,60.0242,-3.1145,71,3
174,03/10/2015 01:05,1443834310,60.06534,-3.02034,8,3,03/10/2015 01:05,1443834342,12.028,29,10.8,0,0,60.0298,-3.0733,3,5
175,03/10/2015 02:05,1443837909,60.03588,-2.94487,3,2,03/10/2015 02:05,1443837907,12.028,29,10.8,0,0,60.0325,-3.0366,3,5
176,03/10/2015 03:05,1443841511,60.03426,-3.01656,2,2,03/10/2015 03:05,1443841543,12.028,29,10.9,0,0,60.0317,-3.0042,3,5
177,03/10/2015 04:05,1443845158,60.03426,-3.01656,12,2,03/10/2015 04:05,1443845113,11.985,29,10.9,0,0,60.0301,-2.9864,38,1
178,03/10/2015 05:05,1443848710,60.03426,-3.01656,8,2,03/10/2015 05:05,1443848742,11.985,31,10.8,0,0,60.0294,-2.9852,3,4
179,03/10/2015 06:05,1443852318,60.03746,-2.87316,5,5,03/10/2015 06:05,1443852301,11.985,31,10.8,0,0,60.031,-2.9972,3,5
180,03/10/2015 07:05,1443855910,60.03426,-3.01656,3,2,03/10/2015 07:05,1443855902,11.985,31,10.8,0,0,60.0348,-3.0144,3,5
181,03/10/2015 08:05,1443859556,60.13821,-4.39871,13,3,03/10/2015 08:05,1443859512,11.985,31,10.8,0,0,60.0387,-3.0285,47,1
182,03/10/2015 09:05,1443863112,60.03426,-3.01656,3,3,03/10/2015 09:05,1443863129,11.985,28,10.8,0,0,60.0446,-3.0349,3,3
183,03/10/2015 10:05,1443866710,59.90673,-0.64375,157,3,03/10/2015 10:05,1443866704,11.985,28,10.9,0,0,60.0506,-3.0305,3,5
184,03/10/2015 11:05,1443870307,60.06696,-2.94856,2,2,03/10/2015 11:05,1443870316,11.985,28,10.8,0,0,60.056,-3.0158,3,5
185,03/10/2015 12:05,1443873909,60.06696,-2.94856,5,3,03/10/2015 12:05,1443873938,11.985,28,10.8,0,0,60.0602,-2.9912,3,5
186,03/10/2015 13:05,1443877511,60.03426,-3.01656,12,2,03/10/2015 13:05,1443877522,11.942,28,10.8,0,0,60.0625,-2.965,3,5
187,03/10/2015 14:05,1443881121,60.01865,0.50258,214,2,03/10/2015 14:05,1443881113,11.942,28,10.9,0,0,60.0624,-2.9363,3,3
188,03/10/2015 15:05,1443884719,60.039,-2.80145,3,2,03/10/2015 15:05,1443884711,11.942,28,10.8,0,0,60.0605,-2.9126,3,2
189,03/10/2015 16:05,1443888310,60.03746,-2.87316,4,2,03/10/2015 16:05,1443888313,11.942,28,10.8,0,0,60.0587,-2.8996,3,5
190,03/10/2015 17:05,1443891910,60.08646,-2.87677,5,2,03/10/2015 17:05,1443891942,11.942,29,10.8,0,0,60.0592,-2.9004,3,5
191,03/10/2015 18:05,1443895512,60.08488,-2.94856,4,2,03/10/2015 18:05,1443895508,11.899,29,10.9,0,0,60.0627,-2.9112,3,5
192,03/10/2015 19:05,1443899109,60.03746,-2.87316,8,2,03/10/2015 19:05,1443899111,11.899,29,10.8,0,0,60.0684,-2.9268,3,5
193,03/10/2015 20:05,1443902711,60.08646,-2.87677,3,2,03/10/2015 20:05,1443902758,11.899,29,10.8,0,0,60.0757,-2.9406,3,5
194,03/10/2015 21:05,1443906321,60.3367,1.01526,234,2,03/10/2015 21:05,1443906315,11.899,32,10.8,0,0,60.0832,-2.9473,3,4
195,03/10/2015 22:05,1443909911,60.11756,-2.88038,8,3,03/10/2015 22:05,1443909943,11.899,32,10.8,0,0,60.0898,-2.9459,3,5
196,03/10/2015 23:05,1443913530,60.08488,-2.94856,4,3,03/10/2015 23:05,1443913508,11.899,32,10.9,0,0,60.0957,-2.9374,20,4
197,04/10/2015 00:05,1443917127,60.08646,-2.87677,6,2,04/10/2015 00:05,1443917109,11.899,32,10.8,0,0,60.1001,-2.9215,3,5
198,04/10/2015 01:05,1443920751,60.08488,-2.94856,4,4,04/10/2015 01:05,1443920730,11.899,32,10.8,0,0,60.1005,-2.8945,33,2
199,04/10/2015 02:05,1443924335,60.08646,-2.87677,8,2,04/10/2015 02:05,1443924310,11.856,32,10.8,0,0,60.0972,-2.8668,24,1
200,04/10/2015 03:05,1443927909,60.07159,-2.73315,10,2,04/10/2015 03:05,1443927914,11.856,32,10.8,0,0,60.0917,-2.8399,3,5
201,04/10/2015 04:05,1443931522,60.08801,-2.80496,3,2,04/10/2015 04:05,1443931546,11.856,32,10.8,0,0,60.0862,-2.8249,15,4
202,04/10/2015 05:05,1443935125,60.08951,-2.73315,3,2,04/10/2015 05:05,1443935144,11.856,28,10.8,0,0,60.0832,-2.8246,18,5
203,04/10/2015 06:05,1443938719,60.08951,-2.73315,5,3,04/10/2015 06:05,1443938712,11.856,28,10.8,0,0,60.0831,-2.8352,3,5
204,04/10/2015 07:05,1443942310,60.11911,-2.80848,5,3,04/10/2015 07:05,1443942338,11.856,28,10.8,0,0,60.0859,-2.8534,3,5
205,04/10/2015 08:05,1443945931,60.08801,-2.80496,4,3,04/10/2015 08:05,1443945908,11.856,28,10.8,0,0,60.0917,-2.873,22,5
206,04/10/2015 09:06,1443949581,60.08801,-2.80496,2,2,04/10/2015 09:05,1443949538,11.856,25,10.8,0,0,60.1011,-2.8886,75,5
207,04/10/2015 10:05,1443953107,60.05226,-2.08387,67,2,04/10/2015 10:05,1443953108,11.856,25,10.8,0,0,60.1117,-2.8971,3,5
208,04/10/2015 11:05,1443956710,60.11756,-2.88038,2,2,04/10/2015 11:05,1443956710,11.942,25,10.8,0,0,60.1207,-2.8949,3,5
209,04/10/2015 12:05,1443960309,60.11756,-2.88038,3,5,04/10/2015 12:05,1443960315,11.942,25,10.8,0,0,60.1282,-2.8815,3,5
210,04/10/2015 13:05,1443963924,60.16655,-2.884,5,4,04/10/2015 13:05,1443963910,11.942,28,10.8,0,0,60.1336,-2.8628,3,2
211,04/10/2015 14:05,1443967509,60.11756,-2.88038,8,2,04/10/2015 14:05,1443967545,11.985,28,10.8,0,0,60.1365,-2.8407,3,5
212,04/10/2015 15:05,1443971113,60.16961,-2.74002,3,2,04/10/2015 15:05,1443971113,12.028,28,10.8,0,0,60.1384,-2.8188,3,5
213,04/10/2015 16:05,1443974711,60.1681,-2.81202,5,2,04/10/2015 16:05,1443974742,11.985,28,10.8,0,0,60.1375,-2.7992,3,5
214,04/10/2015 17:05,1443978310,60.1681,-2.81202,3,2,04/10/2015 17:05,1443978312,11.942,26,10.8,0,0,60.1369,-2.7895,3,5
215,04/10/2015 18:05,1443981915,60.1681,-2.81202,5,3,04/10/2015 18:05,1443981905,11.942,26,10.8,0,0,60.1373,-2.7895,3,5
216,04/10/2015 19:05,1443985510,60.12061,-2.73658,2,2,04/10/2015 19:05,1443985513,11.899,26,10.8,0,0,60.1396,-2.7975,3,5
217,04/10/2015 20:05,1443989107,60.1681,-2.81202,2,2,04/10/2015 20:05,1443989108,11.856,26,10.9,0,0,60.1442,-2.8102,3,5
218,04/10/2015 21:05,1443992708,60.20074,-2.74347,28,3,04/10/2015 21:05,1443992723,11.985,25,10.8,0,0,60.1486,-2.8226,3,5
219,04/10/2015 22:05,1443996310,60.16961,-2.74002,2,2,04/10/2015 22:05,1443996308,11.856,25,10.8,0,0,60.1552,-2.829,3,5
220,04/10/2015 23:05,1443999911,60.16655,-2.884,4,2,04/10/2015 23:05,1443999916,11.856,25,10.8,0,0,60.1633,-2.8289,3,5
221,05/10/2015 00:05,1444003512,60.19923,-2.81556,3,2,05/10/2015 00:05,1444003536,11.856,25,10.8,0,0,60.1727,-2.8249,3,5
222,05/10/2015 01:05,1444007118,60.5168,2.04281,282,2,05/10/2015 01:05,1444007111,11.899,27,10.8,0,0,60.181,-2.8157,3,1
223,05/10/2015 02:05,1444010724,60.20074,-2.74347,5,2,05/10/2015 02:05,1444010711,11.856,27,10.8,0,0,60.1884,-2.8007,18,3
224,05/10/2015 03:05,1444014320,60.2512,-2.67475,7,2,05/10/2015 03:05,1444014313,11.856,27,10.8,0,0,60.1954,-2.7782,3,5
225,05/10/2015 04:05,1444017911,60.20221,-2.67138,3,2,05/10/2015 04:05,1444017912,11.856,27,10.8,0,0,60.2016,-2.752,3,5
226,05/10/2015 05:05,1444021512,60.16961,-2.74002,2,2,05/10/2015 05:05,1444021513,11.856,28,10.8,0,0,60.203,-2.7267,3,3
227,05/10/2015 06:05,1444025111,60.20074,-2.74347,3,4,05/10/2015 06:05,1444025139,11.856,28,10.8,0,0,60.2031,-2.7084,3,1
228,05/10/2015 07:05,1444028711,60.25403,-2.53036,10,3,05/10/2015 07:05,1444028700,11.856,28,10.8,0,0,60.2031,-2.6988,3,5
229,05/10/2015 08:08,1444032482,60.20221,-2.67138,3,2,05/10/2015 08:05,1444032337,11.856,28,10.8,0,0,60.2047,-2.6958,167,2
230,05/10/2015 09:05,1444035910,60.20221,-2.67138,2,3,05/10/2015 09:05,1444035933,11.856,42,10.8,0,0,60.2082,-2.6978,3,5
231,05/10/2015 10:05,1444039529,60.25263,-2.60256,19,2,05/10/2015 10:05,1444039510,11.899,42,10.8,0,0,60.2121,-2.6976,19,5
232,05/10/2015 11:06,1444043195,60.22006,-2.67138,2,5,05/10/2015 11:05,1444043112,11.856,42,10.8,0,0,60.2175,-2.6954,75,5
233,05/10/2015 12:05,1444046709,60.13665,-1.80116,141,2,05/10/2015 12:05,1444046708,11.899,42,10.8,0,0,60.2236,-2.6895,3,3
234,05/10/2015 13:05,1444050322,60.25263,-2.60256,3,2,05/10/2015 13:05,1444050311,11.856,28,10.8,0,0,60.2301,-2.6809,3,5
235,05/10/2015 14:05,1444053916,60.19291,-1.15442,107,2,05/10/2015 14:05,1444053903,11.856,28,10.8,0,0,60.2369,-2.6681,3,5
236,05/10/2015 15:05,1444057508,60.22149,-2.59928,7,4,05/10/2015 15:05,1444057514,11.856,28,10.8,0,0,60.2439,-2.6516,3,2
237,05/10/2015 16:06,1444061167,60.25263,-2.60256,3,3,05/10/2015 16:05,1444061112,11.856,28,10.8,0,0,60.2496,-2.6324,59,4
238,05/10/2015 17:05,1444064711,60.25403,-2.53036,2,2,05/10/2015 17:05,1444064752,11.856,32,10.8,0,0,60.2554,-2.6118,3,5
239,05/10/2015 18:05,1444068323,60.25263,-2.60256,2,2,05/10/2015 18:05,1444068345,11.813,32,10.8,0,0,60.2591,-2.5965,18,5
240,05/10/2015 19:05,1444071946,60.16755,-4.0394,124,2,05/10/2015 19:05,1444071900,11.813,32,10.8,0,0,0,0,39,5
241,05/10/2015 20:05,1444075521,60.25403,-2.53036,3,3,05/10/2015 20:05,1444075503,11.856,32,10.8,0,0,60.2657,-2.5796,3,5
242,05/10/2015 21:05,1444079130,60.31759,-1.59315,78,2,05/10/2015 21:05,1444079129,11.856,33,10.8,0,0,60.2694,-2.5774,22,4
243,05/10/2015 22:05,1444082711,60.25403,-2.53036,4,2,05/10/2015 22:05,1444082745,11.856,33,10.8,0,0,60.2745,-2.5799,3,5
244,05/10/2015 23:05,1444086316,60.37224,-1.01526,111,2,05/10/2015 23:05,1444086314,11.856,33,10.8,0,0,60.2809,-2.5841,3,4
245,06/10/2015 00:05,1444089910,60.30299,-2.53356,5,2,06/10/2015 00:05,1444089914,11.856,33,10.8,0,0,60.2877,-2.5867,3,2
246,06/10/2015 01:06,1444093574,60.33416,-2.53676,3,3,06/10/2015 01:05,1444093531,11.856,30,10.8,0,0,60.2983,-2.5909,66,5
247,06/10/2015 02:06,1444097180,60.33416,-2.53676,2,2,06/10/2015 02:05,1444097130,11.813,30,10.8,0,0,60.3127,-2.5886,75,5
248,06/10/2015 03:05,1444100711,60.6437,2.19697,273,2,06/10/2015 03:05,1444100718,11.813,30,10.8,0,0,60.327,-2.5776,3,5
249,06/10/2015 04:05,1444104323,60.38311,-2.53997,15,4,06/10/2015 04:05,1444104300,11.813,30,10.8,0,0,0,0,3,2
250,06/10/2015 05:05,1444107914,60.30435,-2.46126,15,1,06/10/2015 05:05,1444107914,11.813,34,10.8,0,0,60.3502,-2.5319,3,5
251,06/10/2015 06:05,1444111513,60.3858,-2.39501,3,3,06/10/2015 06:05,1444111556,11.813,34,10.8,0,0,60.357,-2.5096,3,5
252,06/10/2015 07:05,1444115119,60.33552,-2.46437,3,1,06/10/2015 07:05,1444115101,11.813,34,10.8,0,0,60.3622,-2.4932,3,5
253,06/10/2015 08:05,1444118715,60.6605,-7.12502,271,2,06/10/2015 08:05,1444118713,11.813,34,10.8,0,0,60.3662,-2.4826,3,5
254,06/10/2015 09:05,1444122318,60.38448,-2.46749,3,2,06/10/2015 09:05,1444122300,11.856,32,10.8,0,0,0,0,3,2
255,06/10/2015 10:05,1444125919,60.49725,-4.73945,145,3,06/10/2015 10:05,1444125900,11.856,32,10.8,0,0,0,0,3,5
256,06/10/2015 11:05,1444129526,60.3858,-2.39501,2,2,06/10/2015 11:05,1444129541,11.856,32,10.8,0,0,60.3802,-2.4798,20,5
257,06/10/2015 12:05,1444133119,60.44374,-3.41767,86,3,06/10/2015 12:05,1444133110,11.813,32,10.8,0,0,60.3879,-2.4862,3,5
258,06/10/2015 13:06,1444136788,60.417,-2.39804,5,3,06/10/2015 13:05,1444136735,11.813,37,10.8,0,0,60.3989,-2.4942,69,3
259,06/10/2015 14:05,1444140311,60.41431,-2.54319,3,2,06/10/2015 14:05,1444140309,11.727,37,10.8,0,0,60.4125,-2.4964,3,2
260,06/10/2015 15:05,1444143951,60.46461,-2.47376,5,3,06/10/2015 15:05,1444143918,11.77,37,10.8,0,0,60.4259,-2.4924,47,1
261,06/10/2015 16:05,1444147520,60.46324,-2.54642,10,2,06/10/2015 16:05,1444147500,11.77,37,10.8,0,0,0,0,3,5